Wetbulb
57.66 57.76 57.46 57.39 57.43 57.52 57.54 57.58 57.58 57.63 57.91 58.31 58.59 58.85 59.12 59.56 58.88 56.54 49.14 54.29 57.44 64.45 64.24 58.71 58.43 57.18 52.76 48.55 48.76 46.56 37.92 35.62 39.09 40.77 42.63 45.94 44.91 48.19 50.97 49.30 50.09 51.17 52.51 53.67 54.85
57.50 57.48 57.60 57.58 57.64 57.59 57.45 57.83 57.97 58.06 58.25 58.56 58.68 58.90 59.19 59.20 55.70 52.96 59.54 62.77 63.94 65.54 57.36 56.06 54.36 53.71 48.12 48.71 47.02 42.91 36.89 38.90 45.24 44.29 42.72 46.10 45.97 47.00 47.63 47.71 47.99 49.67 52.92 55.12 55.19
57.50 57.44 57.40 57.62 57.62 57.84 57.79 57.84 58.10 58.50 58.83 58.85 58.56 58.72 59.07 58.72 52.71 51.08 64.01 63.38 64.16 64.51 57.79 57.15 56.65 53.96 48.23 48.05 46.83 44.35 39.55 45.16 47.17 48.02 46.85 45.63 45.80 48.21 46.84 44.42 47.15 47.57 50.41 52.77 53.11
57.45 57.39 57.27 57.31 57.39 57.46 57.55 57.57 57.76 58.28 58.32 58.38 58.36 58.53 58.87 56.99 44.61 54.30 65.84 64.78 65.25 62.96 58.12 57.02 52.74 48.83 45.81 44.75 47.76 42.82 47.13 47.75 48.42 49.15 46.22 45.69 47.79 47.28 47.78 47.74 51.11 51.27 51.02 51.71 51.38
57.43 57.23 57.05 57.11 57.25 57.46 57.57 57.64 57.49 57.61 57.83 57.83 58.32 58.82 57.77 53.44 53.59 59.80 67.18 65.32 62.03 59.45 56.88 51.69 49.31 48.08 44.04 46.72 47.77 45.09 47.69 49.78 50.02 48.48 47.44 49.07 47.44 47.64 47.79 51.42 52.95 52.57 52.60 51.38 51.45
57.00 57.12 57.10 57.19 57.25 57.35 57.41 57.22 57.14 57.28 57.47 57.83 58.84 58.89 56.45 49.15 57.18 60.38 62.10 59.84 60.21 56.38 54.81 52.65 49.49 50.47 47.01 46.10 44.98 48.25 48.86 49.09 49.16 48.13 47.96 47.73 48.52 48.01 48.87 51.65 51.65 51.71 51.61 51.20 50.97
56.66 56.55 56.82 57.02 57.08 57.17 57.41 57.04 56.83 57.30 57.55 58.14 58.79 58.57 54.53 51.46 54.80 59.64 60.32 53.61 56.44 56.87 54.35 54.52 53.59 50.04 48.99 45.40 48.78 47.92 44.19 47.46 48.65 49.54 47.91 50.16 46.46 46.99 50.85 51.95 51.21 51.76 52.36 53.59 53.33
56.27 55.83 56.17 56.65 56.80 57.06 57.19 57.21 56.94 57.17 58.15 58.29 58.75 56.61 51.56 58.71 53.65 53.85 54.55 54.17 56.10 55.58 54.53 54.23 54.02 49.62 46.47 48.33 47.41 44.68 43.87 39.62 48.05 50.06 50.25 48.05 40.83 48.37 51.13 50.74 50.67 51.63 52.41 53.69 53.10
56.15 55.52 55.66 56.25 56.53 56.59 56.41 56.21 56.80 57.72 58.42 58.68 55.53 54.13 50.99 58.51 53.40 54.74 53.94 53.72 54.19 54.56 54.25 57.02 52.96 48.74 49.58 44.21 41.41 43.02 37.48 40.27 43.66 47.94 47.91 45.96 42.62 48.79 51.01 50.60 49.88 50.70 51.25 52.83 53.15
55.67 55.11 55.20 55.58 56.05 55.66 55.05 55.48 57.80 56.25 58.14 59.10 58.62 51.01 53.82 51.48 53.35 54.46 55.60 55.18 52.72 52.84 52.56 51.70 47.58 43.80 43.69 41.34 34.92 37.82 38.72 40.24 40.47 46.00 47.19 45.02 44.74 49.39 51.57 51.23 51.19 51.74 52.27 53.99 54.85
55.01 54.65 54.87 55.08 55.34 54.80 53.33 52.42 51.02 51.49 51.41 51.59 53.05 53.34 53.05 55.06 55.67 53.86 54.99 53.11 53.21 49.92 44.76 48.84 42.81 39.82 43.69 45.43 45.22 43.63 41.63 40.98 44.73 48.09 45.24 44.03 45.35 48.30 50.96 51.07 52.13 52.13 53.18 53.56 54.17
54.46 54.55 54.71 54.54 54.51 54.42 51.27 50.63 51.45 51.29 46.67 53.45 53.75 54.70 55.03 55.09 50.73 53.93 54.20 49.29 47.89 44.00 47.53 45.16 41.81 47.29 49.90 48.90 46.21 44.35 42.00 41.24 45.02 48.34 46.41 44.58 44.77 48.64 50.85 52.80 51.96 51.85 51.84 52.28 53.23
53.62 53.82 54.30 54.31 53.74 52.39 51.96 54.90 55.55 53.68 45.99 51.23 55.01 52.39 49.88 50.90 50.67 52.28 52.06 49.43 46.59 45.06 45.82 42.08 45.70 50.06 49.29 45.85 44.82 43.48 42.03 41.97 42.05 45.74 46.03 45.27 42.56 45.23 50.74 51.70 52.31 52.58 52.70 52.99 52.77
53.06 53.15 53.68 53.24 52.54 54.55 53.48 55.75 56.22 56.31 41.18 49.71 50.37 50.51 51.30 50.84 50.48 53.94 54.00 50.59 47.43 45.37 46.40 43.90 48.77 47.70 46.67 45.46 46.04 40.09 46.23 45.58 44.83 41.95 36.48 44.11 35.02 42.11 46.89 47.83 49.95 50.13 50.80 50.91 51.41
52.42 53.08 53.07 52.35 50.77 52.01 55.31 56.02 56.83 54.40 35.60 49.92 49.54 53.56 51.79 48.83 49.63 51.19 53.97 51.33 45.34 46.03 45.95 43.69 45.79 45.80 44.68 45.74 46.75 42.15 47.01 45.03 44.67 41.92 37.67 40.06 36.70 40.04 47.38 45.44 46.60 48.40 49.40 50.08 50.84
52.23 52.56 52.57 53.51 52.80 55.08 57.94 55.20 55.51 43.75 37.37 47.99 50.36 48.45 47.02 50.11 50.13 51.24 51.35 52.04 51.05 46.74 46.97 45.49 51.24 48.84 47.14 49.06 48.03 48.24 45.07 44.72 43.35 39.57 30.49 38.91 37.70 36.45 42.27 44.12 46.20 48.83 49.82 50.43 50.37
51.82 52.05 51.02 54.73 52.06 56.64 56.03 52.44 41.68 38.22 50.61 45.90 46.09 46.74 46.18 46.97 48.02 48.64 47.67 44.67 41.02 37.27 38.16 43.80 44.97 48.02 49.02 44.68 46.98 44.49 38.83 30.34 28.97 27.30 28.23 39.62 35.44 38.05 47.19 48.08 47.75 47.63 48.50 49.46 50.24
50.73 50.57 53.37 56.77 57.17 56.20 54.05 46.04 36.45 47.28 45.12 49.57 47.69 46.45 45.07 47.33 46.54 47.32 45.55 42.29 45.18 42.70 37.56 35.47 34.94 43.24 46.99 44.16 41.16 41.33 42.13 32.54 24.66 23.45 31.20 40.49 34.29 41.17 49.30 49.46 49.52 49.34 49.34 49.89 49.33
49.83 54.62 56.64 59.05 59.34 55.82 48.88 38.52 40.78 45.42 47.40 46.11 46.22 43.63 43.43 46.58 45.76 44.74 44.28 42.90 44.21 43.25 35.23 34.68 37.54 45.71 46.76 47.92 45.30 42.20 38.15 43.28 33.66 35.81 27.97 35.02 39.61 45.34 47.94 48.10 48.60 48.28 48.89 48.34 48.75
47.90 52.62 55.96 58.63 58.44 54.07 45.27 41.98 46.06 49.41 48.87 47.74 41.66 44.29 39.88 43.47 42.89 42.41 43.61 46.80 46.37 47.37 44.04 39.73 33.66 44.32 45.59 47.56 48.13 45.93 47.91 37.20 37.82 25.19 24.29 32.95 34.31 35.73 42.20 44.14 46.70 46.30 46.69 48.16 49.16
49.53 51.90 56.36 56.78 57.50 49.75 42.23 45.23 48.58 50.61 49.93 46.21 43.38 42.31 43.64 42.86 43.51 42.49 44.45 46.70 48.51 46.05 44.12 40.49 37.44 38.63 42.69 41.77 42.62 42.25 41.59 41.87 38.14 33.96 27.18 28.27 31.64 42.75 42.91 44.68 44.94 45.41 47.23 48.60 48.69
51.05 47.89 55.31 55.58 46.84 48.28 44.61 48.65 46.63 48.99 51.10 49.94 47.43 45.93 44.46 44.32 43.09 43.39 44.01 46.18 49.56 47.12 40.59 41.96 36.48 32.81 38.40 46.42 49.09 46.02 41.18 39.50 30.53 32.07 35.82 35.74 34.26 46.51 46.83 45.87 46.40 46.50 48.39 48.90 49.31
46.91 51.30 56.99 56.66 43.36 43.72 48.89 49.44 49.99 48.51 47.79 47.39 45.89 47.31 46.24 43.32 40.09 44.83 46.19 50.86 49.91 47.07 41.70 41.42 34.64 31.36 34.84 41.14 44.17 40.83 43.00 41.20 40.16 40.80 35.86 32.26 31.22 47.22 46.98 46.49 47.10 46.72 47.45 48.45 48.94
48.22 46.64 51.23 52.18 50.65 46.06 45.32 47.58 47.08 50.72 49.53 49.06 47.06 47.59 45.13 42.86 44.81 43.06 45.39 49.71 49.85 47.17 51.22 48.07 39.11 36.41 30.54 37.03 40.45 38.46 41.63 43.98 42.75 35.79 37.16 34.29 37.57 42.33 44.58 44.99 46.47 47.21 47.77 48.02 48.48
50.68 47.25 48.74 41.55 44.85 46.30 46.21 47.56 45.74 46.34 49.10 48.41 46.05 47.21 43.69 38.65 41.60 42.59 45.63 46.19 48.20 51.09 46.26 43.41 37.04 39.93 42.61 43.06 43.15 42.98 43.02 43.69 40.45 41.67 34.95 38.66 39.47 41.81 44.32 44.91 45.98 47.80 47.87 47.40 47.52
47.56 45.20 47.77 45.87 47.67 47.08 45.64 45.35 47.53 47.71 45.50 44.42 43.84 46.50 45.04 40.22 42.52 41.14 43.68 41.44 41.80 45.67 43.11 43.31 36.84 39.71 38.96 43.19 43.94 41.46 44.02 44.05 43.88 42.88 42.15 41.84 40.13 44.93 46.59 46.91 46.48 46.94 47.08 46.50 46.76
51.40 51.24 46.59 45.49 45.26 44.51 45.06 47.09 47.26 46.60 47.77 48.88 47.28 44.60 43.60 45.72 46.93 46.39 45.82 45.24 44.53 42.61 41.04 40.86 38.70 38.35 33.84 41.95 41.83 37.79 42.60 44.00 43.54 43.66 42.09 36.76 40.92 44.66 43.99 45.61 44.95 46.73 45.65 46.30 46.87
MSLP
1016.83 1016.57 1016.36 1016.12 1015.90 1015.65 1015.39 1015.15 1014.93 1014.69 1014.49 1014.25 1013.99 1013.72 1013.36 1012.79 1011.73 1011.07 1010.98 1010.53 1010.26 1009.94 1009.90 1009.41 1008.69 1007.86 1007.65 1007.71 1007.51 1007.51 1008.69 1008.83 1007.69 1006.68 1005.83 1004.63 1004.46 1003.68 1003.10 1002.99 1003.00 1002.94 1003.16 1002.95 1002.77
1016.92 1016.64 1016.35 1016.11 1015.89 1015.64 1015.35 1015.08 1014.84 1014.59 1014.40 1014.17 1013.89 1013.64 1013.29 1012.96 1012.32 1011.08 1010.28 1009.97 1009.75 1009.73 1009.60 1009.29 1008.57 1007.60 1007.67 1007.41 1007.31 1007.77 1008.30 1007.68 1006.82 1006.04 1005.79 1005.24 1005.04 1004.55 1004.05 1003.88 1003.81 1003.66 1003.14 1003.19 1002.98
1016.99 1016.69 1016.40 1016.14 1015.86 1015.61 1015.32 1014.99 1014.72 1014.47 1014.27 1014.08 1013.83 1013.49 1013.16 1012.87 1012.13 1010.59 1010.05 1009.85 1009.50 1009.57 1009.76 1009.23 1008.48 1007.76 1007.35 1006.86 1006.95 1007.02 1007.49 1007.09 1006.27 1005.68 1005.50 1005.57 1005.37 1004.98 1004.74 1004.74 1004.42 1004.33 1004.09 1003.73 1003.63
1017.09 1016.73 1016.40 1016.07 1015.81 1015.55 1015.28 1014.96 1014.60 1014.30 1014.12 1014.05 1013.84 1013.47 1012.90 1012.76 1011.64 1009.85 1009.65 1009.50 1009.11 1009.31 1009.47 1008.68 1007.75 1007.59 1007.62 1007.49 1007.04 1006.80 1006.77 1006.47 1006.03 1005.39 1005.34 1005.58 1005.15 1004.98 1004.87 1004.53 1004.28 1004.04 1003.90 1003.92 1004.13
1017.26 1016.84 1016.45 1016.05 1015.71 1015.48 1015.23 1014.91 1014.58 1014.25 1014.06 1014.05 1013.90 1013.45 1012.45 1011.85 1009.97 1009.22 1009.31 1009.14 1009.16 1009.11 1009.01 1008.47 1008.28 1008.21 1008.26 1008.14 1007.61 1007.12 1006.93 1006.46 1005.72 1005.45 1005.28 1005.17 1005.09 1004.83 1004.51 1004.17 1003.74 1003.61 1003.59 1003.75 1004.01
1017.39 1016.92 1016.46 1015.99 1015.53 1015.19 1014.91 1014.73 1014.49 1014.19 1014.05 1014.04 1013.92 1013.59 1013.03 1010.96 1008.11 1008.49 1008.76 1008.83 1008.65 1008.43 1008.24 1008.23 1008.33 1008.32 1008.47 1008.48 1008.44 1007.77 1007.29 1006.58 1005.92 1005.41 1005.20 1005.16 1004.77 1004.62 1003.94 1003.48 1003.49 1003.32 1003.28 1003.21 1003.39
1017.45 1016.96 1016.43 1015.95 1015.43 1014.97 1014.65 1014.32 1014.15 1014.02 1013.87 1013.88 1013.83 1013.41 1012.13 1009.77 1007.76 1008.00 1008.24 1007.98 1007.68 1007.68 1007.76 1007.92 1008.09 1008.75 1008.83 1008.86 1008.02 1008.08 1007.83 1006.81 1005.61 1004.97 1004.75 1004.20 1004.49 1003.94 1002.86 1002.83 1002.98 1002.89 1002.83 1002.77 1002.92
1017.40 1016.89 1016.32 1015.73 1015.22 1014.82 1014.40 1014.03 1013.74 1013.64 1013.65 1013.61 1013.72 1013.30 1011.12 1007.95 1007.50 1007.81 1007.74 1007.58 1007.27 1007.34 1007.47 1007.52 1007.67 1008.44 1008.87 1008.66 1008.19 1008.25 1008.06 1007.33 1004.79 1004.57 1003.89 1004.31 1004.07 1003.05 1002.29 1002.16 1002.39 1002.09 1002.09 1002.13 1002.05
1017.48 1016.93 1016.29 1015.61 1014.97 1014.49 1014.07 1013.57 1013.25 1013.11 1013.21 1013.41 1013.44 1012.71 1009.98 1007.67 1007.62 1007.63 1007.65 1007.53 1007.34 1007.11 1006.93 1007.01 1007.46 1008.23 1008.43 1008.73 1008.54 1007.80 1007.99 1007.11 1005.82 1004.46 1003.87 1003.60 1003.36 1002.64 1002.09 1002.14 1002.17 1002.11 1001.85 1001.77 1001.71
1017.51 1016.87 1016.22 1015.57 1014.84 1014.22 1013.54 1012.86 1012.71 1012.89 1012.75 1012.76 1012.25 1011.92 1009.33 1007.77 1007.48 1007.31 1007.17 1007.24 1007.13 1006.93 1006.91 1006.87 1007.57 1008.00 1008.09 1008.67 1008.69 1008.07 1007.52 1006.65 1006.08 1004.83 1004.11 1004.07 1003.69 1003.01 1002.17 1002.21 1002.11 1002.23 1002.17 1002.42 1002.67
1017.65 1016.87 1016.11 1015.33 1014.70 1014.19 1013.19 1012.37 1012.77 1012.67 1012.09 1011.02 1010.01 1009.23 1007.59 1007.30 1007.03 1006.91 1006.97 1007.14 1007.17 1007.23 1007.29 1006.55 1007.61 1007.65 1007.17 1007.29 1007.29 1007.33 1007.21 1006.95 1005.88 1004.96 1004.74 1004.52 1004.03 1003.20 1002.31 1002.46 1003.37 1003.44 1003.14 1003.41 1003.62
1017.69 1016.86 1016.00 1015.02 1014.21 1013.93 1014.06 1012.81 1010.90 1010.61 1009.72 1008.93 1008.38 1007.50 1007.16 1006.89 1006.88 1006.85 1006.93 1007.51 1007.78 1007.69 1007.12 1006.89 1006.28 1006.41 1006.44 1006.47 1006.71 1006.89 1006.87 1006.60 1005.71 1005.17 1005.09 1004.95 1004.53 1003.18 1002.52 1003.65 1003.87 1004.22 1004.33 1004.49 1004.37
1017.69 1016.87 1015.95 1014.79 1013.56 1013.37 1012.59 1011.12 1009.48 1009.39 1009.89 1007.81 1006.83 1006.87 1006.65 1006.81 1006.58 1006.81 1007.13 1007.64 1007.94 1007.83 1007.54 1007.33 1006.49 1005.78 1005.72 1006.00 1006.35 1006.59 1006.76 1006.65 1006.44 1005.86 1005.69 1005.44 1004.79 1004.01 1004.31 1004.05 1004.43 1004.62 1005.00 1005.09 1005.52
1017.49 1016.86 1016.12 1014.92 1013.41 1012.31 1011.15 1009.76 1009.41 1009.61 1009.80 1007.63 1006.69 1006.60 1006.28 1006.15 1006.35 1006.44 1006.78 1007.55 1007.93 1007.92 1007.54 1007.16 1005.98 1006.05 1005.69 1005.97 1006.47 1006.73 1006.74 1006.71 1006.59 1006.66 1006.60 1006.02 1005.53 1005.31 1005.53 1005.61 1005.49 1005.97 1006.47 1006.81 1006.40
1017.37 1016.54 1016.02 1016.07 1014.29 1012.34 1010.24 1009.47 1009.72 1009.97 1009.49 1007.42 1006.42 1005.84 1005.89 1006.33 1006.24 1006.45 1006.22 1006.77 1007.35 1007.78 1007.99 1007.47 1006.28 1006.01 1005.89 1006.09 1006.54 1006.86 1006.57 1006.68 1006.92 1007.13 1007.29 1007.76 1007.46 1006.70 1006.49 1006.92 1007.13 1007.34 1007.44 1007.30 1006.82
1016.91 1016.13 1015.98 1014.40 1013.95 1011.26 1010.10 1009.67 1009.97 1010.52 1008.67 1007.57 1006.67 1006.33 1006.31 1006.01 1006.27 1006.18 1006.09 1005.82 1006.47 1007.77 1007.99 1007.53 1005.34 1005.39 1005.93 1006.12 1006.40 1006.61 1007.03 1007.43 1007.85 1008.05 1008.65 1008.70 1008.97 1008.13 1008.08 1008.17 1007.99 1007.75 1007.52 1007.01 1006.83
1016.38 1014.97 1015.59 1014.09 1012.11 1010.31 1010.03 1010.22 1010.70 1009.77 1007.53 1008.26 1007.71 1007.27 1006.77 1006.40 1006.51 1006.70 1006.64 1007.29 1008.27 1008.92 1009.18 1008.21 1007.34 1006.57 1006.53 1006.77 1006.66 1007.16 1008.07 1009.85 1010.47 1010.40 1010.46 1008.97 1009.34 1008.91 1008.63 1008.42 1008.65 1008.52 1008.24 1007.73 1007.05
1015.83 1014.03 1013.08 1012.34 1010.85 1010.50 1010.76 1011.12 1010.79 1009.21 1009.27 1009.07 1008.66 1007.73 1007.28 1007.22 1007.39 1007.50 1007.65 1008.28 1009.10 1009.79 1010.40 1010.14 1008.74 1007.92 1007.63 1007.51 1007.31 1007.99 1009.60 1011.65 1012.71 1012.73 1011.86 1009.69 1009.43 1008.90 1008.52 1008.81 1008.85 1008.72 1008.23 1007.47 1007.15
1015.47 1013.35 1012.29 1010.96 1010.63 1010.63 1011.45 1011.38 1010.40 1010.01 1010.19 1009.73 1009.10 1008.49 1008.43 1008.39 1008.65 1008.77 1008.59 1009.07 1009.91 1010.45 1011.36 1011.11 1009.95 1008.93 1008.10 1007.61 1007.61 1008.27 1009.73 1011.02 1013.07 1013.41 1013.11 1010.79 1009.69 1008.94 1008.64 1008.40 1008.35 1008.58 1008.13 1007.34 1006.66
1016.50 1014.03 1011.31 1009.92 1010.19 1010.97 1011.60 1011.00 1010.16 1010.29 1010.45 1010.24 1010.07 1009.94 1010.13 1009.87 1009.94 1009.73 1009.28 1009.89 1010.20 1010.64 1011.06 1011.48 1010.85 1009.31 1008.61 1007.85 1008.03 1008.81 1010.31 1011.50 1013.11 1014.25 1013.61 1011.50 1010.39 1009.82 1009.11 1009.25 1009.05 1008.39 1007.77 1007.17 1006.61
1016.33 1013.89 1010.74 1009.94 1010.32 1011.33 1011.64 1010.65 1010.11 1010.26 1010.54 1010.75 1010.88 1010.97 1010.91 1010.88 1010.88 1010.50 1009.87 1010.29 1010.29 1010.63 1010.98 1011.54 1011.94 1010.83 1009.93 1009.12 1008.68 1009.95 1011.01 1011.39 1012.36 1013.62 1014.13 1013.04 1011.15 1009.81 1009.58 1009.37 1009.26 1008.87 1008.28 1007.72 1007.00
1016.51 1013.64 1010.53 1010.04 1011.09 1011.20 1011.05 1010.68 1011.03 1010.43 1010.49 1010.62 1010.99 1011.22 1011.43 1011.60 1011.47 1010.81 1010.35 1010.17 1010.12 1010.53 1011.12 1011.86 1012.18 1011.81 1010.71 1009.31 1009.02 1010.07 1010.50 1010.89 1012.41 1013.39 1013.69 1013.18 1011.61 1009.63 1009.36 1009.35 1009.27 1008.77 1008.35 1007.74 1007.19
1018.14 1014.06 1010.61 1010.43 1011.45 1011.69 1011.08 1010.74 1010.79 1010.89 1011.07 1011.11 1011.38 1011.62 1011.88 1012.06 1012.03 1011.18 1010.69 1010.33 1010.35 1010.69 1011.67 1012.17 1012.56 1012.40 1011.21 1009.88 1009.23 1009.60 1009.67 1010.04 1010.91 1012.51 1012.92 1013.09 1011.04 1009.54 1009.42 1009.38 1009.07 1008.94 1008.54 1007.79 1007.35
1018.68 1014.87 1012.33 1011.74 1012.03 1012.48 1012.07 1011.36 1011.01 1010.63 1010.98 1011.27 1011.66 1011.77 1011.84 1012.27 1012.22 1011.88 1011.30 1010.67 1010.91 1011.37 1011.84 1012.37 1013.00 1013.20 1012.75 1011.76 1010.78 1009.85 1009.49 1009.34 1010.06 1011.89 1012.18 1011.77 1010.57 1009.97 1009.59 1009.54 1009.31 1009.12 1008.86 1008.42 1007.56
1018.39 1015.81 1014.82 1013.83 1013.34 1013.19 1012.79 1012.19 1011.56 1011.02 1011.20 1011.60 1011.65 1011.79 1012.27 1012.74 1012.83 1012.20 1011.81 1011.51 1011.54 1011.35 1012.07 1012.63 1013.16 1013.08 1012.41 1011.40 1010.47 1009.79 1009.24 1009.19 1009.79 1010.57 1010.96 1010.89 1010.49 1010.15 1009.99 1009.72 1009.67 1009.53 1009.18 1008.40 1007.48
1018.17 1017.23 1016.00 1015.33 1014.15 1013.43 1012.91 1012.22 1011.62 1011.53 1011.86 1012.20 1012.23 1012.20 1012.51 1012.99 1013.05 1012.65 1012.48 1012.59 1012.39 1011.99 1012.30 1012.59 1012.82 1012.82 1012.04 1010.91 1010.07 1010.11 1008.95 1008.81 1009.01 1009.60 1009.83 1010.10 1010.25 1010.07 1009.64 1009.47 1009.55 1009.64 1009.22 1008.55 1007.92
1019.03 1018.10 1017.39 1015.92 1014.78 1013.95 1012.64 1012.23 1012.08 1012.16 1012.17 1012.03 1012.45 1012.60 1012.84 1012.87 1012.90 1012.64 1012.35 1012.19 1012.29 1012.25 1012.45 1012.75 1012.58 1012.56 1011.80 1010.62 1009.85 1009.67 1008.67 1008.97 1008.76 1009.32 1009.88 1010.14 1009.95 1009.45 1009.51 1009.40 1009.73 1009.65 1009.60 1008.71 1008.14
Wind_Speed
12 12 11 10 10 10 11 11 11 11 12 13 14 14 14 16 17 2 2 3 5 9 8 9 11 11 8 5 5 2 4 4 7 4 7 9 9 8 6 3 3 4 2 8 9
13 12 12 11 11 11 11 12 12 12 12 13 13 13 14 15 4 4 4 5 9 8 7 8 10 7 4 7 4 5 4 8 4 4 5 9 9 10 8 9 7 7 11 6 9
14 13 13 12 12 11 12 12 12 12 12 12 13 15 14 13 5 3 8 7 10 7 6 12 18 13 8 6 6 5 6 8 9 4 6 7 8 7 9 7 7 7 7 11 6
16 15 14 13 13 12 12 13 13 14 13 11 12 15 18 3 4 4 11 11 13 5 6 9 9 9 5 6 5 4 7 7 9 8 5 7 8 6 5 9 8 10 8 6 9
16 16 15 13 13 12 12 12 13 14 14 13 12 14 8 4 6 8 12 12 6 5 7 9 8 7 7 8 10 7 7 10 10 9 8 10 8 9 10 11 10 9 9 8 6
17 16 15 14 13 12 11 12 12 12 12 11 11 15 2 6 5 13 12 8 10 7 6 7 7 8 5 6 6 8 13 13 9 12 10 12 13 5 8 11 10 9 11 10 10
18 17 16 15 14 13 13 12 11 11 11 10 9 6 5 12 4 9 11 3 5 7 2 5 4 7 9 8 8 8 10 15 17 19 12 12 11 10 16 12 12 14 10 10 10
21 20 19 17 16 15 14 13 11 12 11 7 5 3 7 6 1 7 9 9 3 7 5 8 2 3 3 8 8 8 6 7 17 13 10 6 8 11 11 8 11 11 9 10 12
22 21 21 20 18 17 15 15 14 11 8 5 3 3 9 2 3 5 4 7 8 8 6 8 6 6 7 5 7 3 5 8 9 9 8 5 10 8 10 7 7 8 10 11 10
23 22 21 21 20 18 18 12 4 10 5 6 6 6 8 3 4 7 4 6 10 9 8 6 4 5 5 3 5 7 9 9 7 12 13 10 8 13 14 11 13 11 7 5 9
23 24 24 22 19 16 10 4 4 3 2 8 7 8 7 4 5 1 5 8 9 9 7 10 5 8 10 2 5 5 6 9 15 13 6 7 12 18 17 12 10 13 17 19 18
23 24 25 25 22 15 3 3 4 6 9 11 15 6 7 5 7 7 5 7 8 9 10 7 12 8 5 6 7 8 9 10 7 13 11 13 17 22 20 8 13 17 17 16 17
23 23 26 28 29 2 4 8 7 5 3 13 9 3 2 2 5 3 4 4 8 9 11 8 15 17 4 4 7 7 7 10 11 11 8 14 11 9 5 18 16 16 14 16 17
24 23 25 29 3 4 4 3 8 7 2 6 6 3 5 6 0 4 3 3 4 9 8 7 9 15 8 7 6 5 9 14 13 10 8 4 15 9 6 11 12 14 16 16 17
25 26 24 11 7 5 6 6 5 5 3 1 4 6 6 5 3 4 5 5 6 10 7 11 17 11 9 4 7 8 14 14 7 12 5 10 6 7 15 13 13 13 14 13 13
28 27 23 1 4 9 11 6 3 2 4 3 1 7 9 7 5 2 6 6 4 4 11 16 19 5 3 4 8 11 11 8 8 5 5 6 6 7 4 8 12 14 15 18 16
31 34 13 6 5 6 6 5 3 3 2 6 7 11 10 7 4 6 9 8 6 7 10 13 15 9 13 10 8 8 5 5 7 7 4 12 6 3 7 9 12 14 15 16 15
34 33 5 7 7 3 5 4 3 7 9 7 9 13 5 10 6 10 10 3 10 8 6 6 8 16 18 13 8 7 7 5 3 2 7 14 4 1 3 9 8 10 14 17 16
30 4 4 5 8 3 4 1 3 7 9 9 11 7 9 14 9 9 7 5 5 7 4 5 7 21 20 10 5 5 5 6 5 4 2 5 2 3 10 13 15 16 16 20 22
7 5 4 1 6 3 2 5 4 7 6 7 5 9 8 9 8 9 7 6 3 6 5 5 12 9 15 12 5 4 2 5 4 3 5 5 6 1 13 11 11 16 17 19 22
2 4 2 2 4 2 2 3 6 12 6 5 6 5 8 7 8 9 5 5 4 5 4 4 4 10 11 9 9 7 3 6 4 3 3 5 6 2 6 10 8 12 15 18 20
6 3 2 3 2 3 1 2 1 7 4 3 1 5 6 8 6 7 7 6 5 1 3 3 3 5 16 10 15 3 4 3 5 6 4 3 7 6 9 10 6 12 15 17 19
6 5 3 5 2 4 5 4 3 3 5 4 5 6 7 5 5 7 7 5 11 7 4 3 3 5 11 8 14 12 17 6 2 4 4 2 7 7 11 12 7 10 15 17 19
4 4 4 4 3 5 5 5 6 7 1 3 5 7 5 7 7 8 11 11 12 3 6 3 2 4 5 11 10 14 16 16 2 4 4 7 8 7 14 14 8 10 14 17 16
4 3 4 4 5 6 6 7 7 3 4 6 3 5 5 3 8 7 11 10 11 3 3 3 3 6 13 16 17 19 10 8 5 5 4 6 7 9 13 10 5 8 12 16 19
3 4 5 7 8 6 5 6 5 4 8 7 7 8 6 5 7 7 7 3 6 5 6 4 5 8 11 15 16 9 8 2 5 4 4 6 5 7 8 9 6 8 12 14 16
5 5 3 6 6 6 5 3 5 6 5 8 8 6 8 7 7 8 9 8 9 10 6 5 3 2 6 13 15 5 3 4 4 6 3 4 6 6 7 11 4 7 8 12 13
Wind_Direction
360 357 353 349 345 341 336 332 328 326 327 331 336 337 336 332 317 245 360 274 273 314 317 280 284 273 218 258 242 24 30 260 269 316 291 348 15 350 353 54 339 343 274 283 307
358 352 348 345 340 338 333 331 328 326 327 330 334 335 333 335 293 290 174 256 295 326 333 320 318 311 265 240 229 137 169 237 274 4 355 344 7 330 8 353 340 343 323 325 330
357 352 345 341 337 333 328 326 326 325 327 332 334 332 328 323 292 135 185 238 264 277 261 277 274 253 263 195 218 216 217 275 300 342 18 332 336 333 356 337 311 299 306 324 344
0 353 346 337 332 327 323 322 321 321 323 329 333 327 316 264 15 168 182 218 254 277 286 285 333 359 341 347 326 177 266 279 284 300 356 298 288 305 283 258 252 269 280 293 298
0 354 346 338 329 323 318 315 315 315 318 327 334 327 347 280 241 168 191 217 266 288 256 351 329 10 355 327 331 347 318 311 316 324 311 314 293 272 272 264 260 257 256 257 258
359 354 346 336 328 318 313 309 305 305 310 322 329 317 261 288 112 166 199 206 225 279 349 328 347 346 293 301 350 314 309 297 301 287 278 258 259 231 264 266 267 256 248 230 227
358 353 346 336 325 316 310 305 301 301 305 315 329 312 271 245 9 182 205 303 253 270 245 270 353 357 325 319 279 319 311 299 275 263 252 241 266 232 245 233 245 237 238 223 219
355 352 347 339 329 318 309 300 293 295 299 296 298 295 258 256 230 12 335 302 333 332 321 313 153 352 261 258 283 273 273 287 283 323 245 199 255 269 267 232 245 231 216 211 219
351 348 344 339 333 327 313 292 283 281 257 267 252 206 270 265 39 2 327 308 326 286 254 267 137 210 277 269 309 255 247 292 290 316 317 324 288 275 297 303 281 257 241 234 229
346 343 341 337 334 329 315 271 300 314 205 234 251 311 266 323 14 278 255 326 299 275 280 228 204 217 270 195 250 324 327 317 305 302 320 326 314 321 308 314 296 297 306 40 56
343 340 336 333 331 330 345 3 9 15 260 226 242 229 289 335 292 332 30 323 357 343 283 277 125 226 247 38 323 304 307 291 285 288 11 328 319 296 289 289 45 46 41 30 20
340 338 335 330 322 321 267 264 48 233 305 270 272 271 265 253 284 15 36 4 336 304 295 311 244 234 255 315 306 299 288 286 301 342 340 318 291 280 292 100 57 43 33 25 12
339 337 334 327 317 278 208 264 321 330 336 302 180 237 284 279 280 301 55 359 312 302 342 322 293 299 273 310 319 311 310 327 316 314 295 284 289 319 32 58 51 39 29 20 11
335 334 334 330 335 339 267 255 15 67 340 203 175 164 259 209 334 85 164 124 298 309 323 307 309 334 340 1 22 333 305 290 289 304 286 300 290 310 55 42 48 35 25 8 350
332 329 331 318 297 302 320 38 13 55 358 102 101 158 259 247 223 164 267 192 253 279 357 290 276 287 294 31 358 265 280 283 295 300 339 12 41 324 42 27 24 22 6 345 340
329 323 333 167 214 254 294 335 29 8 245 133 218 340 343 319 4 351 284 246 195 359 337 320 333 206 62 336 272 278 345 336 322 290 53 168 124 274 30 24 13 359 354 346 337
325 314 313 274 232 326 353 347 1 217 129 45 358 330 300 287 25 327 318 48 63 14 352 328 29 1 41 350 331 345 1 1 353 6 250 326 356 201 13 33 21 1 344 324 331
326 313 214 214 247 259 9 21 259 340 27 13 334 302 333 44 18 353 337 106 64 44 334 355 321 27 332 303 273 326 110 150 254 296 289 303 179 56 49 48 10 354 334 332 334
321 312 269 246 240 58 48 309 299 32 15 343 335 1 11 355 16 356 345 67 63 54 57 309 294 319 296 348 8 314 12 130 103 344 352 257 175 229 16 14 8 355 340 333 334
320 300 273 242 109 49 53 252 77 75 15 353 340 29 344 341 19 341 335 46 43 42 59 276 302 295 343 309 55 110 16 336 63 319 297 297 322 336 0 3 352 349 342 339 333
241 311 209 301 101 30 233 318 63 98 76 1 3 315 324 15 339 329 323 101 61 11 353 3 33 298 311 325 314 35 14 247 145 113 224 305 280 95 357 8 352 336 332 338 333
312 306 248 60 58 210 174 71 323 35 29 8 273 320 14 350 303 307 19 326 80 144 301 110 237 300 294 275 67 23 286 57 103 279 200 221 271 284 29 9 8 332 336 338 340
315 275 266 99 22 337 1 4 126 34 16 3 334 355 335 289 348 305 322 22 18 26 61 0 326 326 339 351 347 344 319 283 278 54 209 243 266 330 13 354 356 340 340 341 340
289 308 349 2 74 24 4 357 355 160 93 113 255 282 285 10 325 309 308 4 4 76 155 118 242 227 222 264 289 305 297 297 131 140 231 229 277 4 356 339 348 344 344 332 338
226 332 348 319 347 340 324 317 294 352 60 352 287 250 55 351 304 289 343 348 344 167 195 147 255 290 291 301 302 305 340 38 61 309 236 325 346 2 336 326 10 349 341 340 338
323 6 344 294 289 258 264 255 284 13 30 316 296 340 1 299 272 312 330 344 261 326 5 310 284 314 300 290 291 305 329 351 252 303 20 346 329 341 303 341 28 349 339 338 334
334 340 334 288 298 297 249 24 7 359 291 325 20 354 309 317 332 294 268 244 237 259 262 245 228 276 279 304 324 291 199 272 55 82 18 349 279 301 342 351 14 330 332 333 334